GW1828 Weather Reports


time (UTC)temp
C
wind
direction
speed
KPH
gust
KPH
rain 1hr
cm
rain 24hr
cm
rain mn
cm
humidity
%
barometer
mb
20260505041747 15 209 6.4 8.0 0.00 0.00 0.00 43 1017.6
20260505041552 15 223 4.8 11.3 0.00 0.00 0.00 41 1017.6
20260505041055 15 227 6.4 11.3 0.00 0.00 0.00 41 1017.6
20260505040553 15 245 3.2 9.7 0.00 0.00 0.00 41 1017.6
20260505035748 15 234 4.8 9.7 0.00 0.00 0.00 41 1017.5
20260505035247 15 228 6.4 8.0 0.00 0.00 0.00 41 1017.6
20260505034751 15 217 4.8 8.0 0.00 0.00 0.00 42 1017.6
20260505034245 14 221 4.8 6.4 0.00 0.00 0.00 44 1017.6
20260505033746 14 217 3.2 8.0 0.00 0.00 0.00 46 1017.6
20260505033247 14 258 4.8 8.0 0.00 0.00 0.00 46 1017.7
20260505032746 14 237 3.2 9.7 0.00 0.00 0.00 45 1017.6
20260505032246 13 234 3.2 9.7 0.00 0.00 0.00 49 1017.7
20260505031746 13 216 4.8 9.7 0.00 0.00 0.00 56 1017.7
20260505031246 14 199 3.2 9.7 0.00 0.00 0.00 62 1017.6
20260505030745 14 199 4.8 9.7 0.00 0.00 0.00 55 1017.7
20260505030246 13 220 6.4 9.7 0.00 0.00 0.00 57 1017.6
20260505025745 13 248 4.8 8.0 0.00 0.00 0.00 60 1017.7
20260505025245 14 319 3.2 6.4 0.00 0.00 0.00 60 1017.6
20260505024745 14 257 4.8 6.4 0.00 0.00 0.00 53 1017.6
20260505024245 13 258 4.8 6.4 0.00 0.00 0.00 54 1017.6
20260505023745 13 262 3.2 6.4 0.00 0.00 0.00 57 1017.8
20260505023246 12 258 3.2 6.4 0.00 0.00 0.00 65 1017.8
20260505023056 12 262 3.2 4.8 0.00 0.00 0.00 70 1017.9
20260505022549 12 286 1.6 4.8 0.00 0.00 0.00 71 1017.9
20260505021745 12 259 0.0 4.8 0.00 0.00 0.00 70 1017.9
20260505021245 11 254 1.6 6.4 0.00 0.00 0.00 72 1018.0
20260505021054 11 296 3.2 6.4 0.00 0.00 0.00 75 1018.0
20260505020244 11 278 1.6 6.4 0.00 0.00 0.00 79 1018.1
20260505020055 11 282 1.6 6.4 0.00 0.00 0.00 80 1018.1
20260505015244 11 271 1.6 3.2 0.00 0.00 0.00 81 1018.1
20260505014747 11 271 0.0 0.0 0.00 0.00 0.00 81 1018.1
20260505014244 11 271 0.0 0.0 0.00 0.00 0.00 81 1018.3
20260505013744 11 271 0.0 1.6 0.00 0.00 0.00 81 1018.3
20260505013249 11 271 0.0 1.6 0.00 0.00 0.00 81 1018.4
20260505012744 11 271 0.0 1.6 0.00 0.00 0.00 81 1018.4
20260505012243 11 271 0.0 1.6 0.00 0.00 0.00 81 1018.5
20260505011743 10 271 0.0 1.6 0.00 0.00 0.00 81 1018.5
20260505011243 10 271 0.0 1.6 0.00 0.00 0.00 81 1018.6
20260505010743 10 271 0.0 0.0 0.00 0.00 0.00 81 1018.6
20260505010242 10 271 0.0 3.2 0.00 0.00 0.00 80 1018.6
20260505010058 11 271 0.0 3.2 0.00 0.00 0.00 79 1018.6
20260505005242 11 271 0.0 0.0 0.00 0.00 0.00 78 1018.7
20260505004742 11 271 0.0 4.8 0.00 0.00 0.00 78 1018.6
20260505004242 11 271 1.6 4.8 0.00 0.00 0.00 78 1018.7
20260505003851 11 271 0.0 3.2 0.00 0.00 0.00 79 1018.7
20260505003827 11 271 0.0 1.6 0.00 0.00 0.00 78 1018.6
20260505002900 11 271 0.0 0.0 0.00 0.00 0.00 80 1018.7
20260505002833 11 271 3.2 3.2 0.00 0.00 0.00 80 1018.7
20260505001743 11 271 0.0 3.2 0.00 0.00 0.00 79 1018.8
20260505001242 11 271 0.0 4.8 0.00 0.00 0.00 80 1018.9
20260505000741 11 271 1.6 4.8 0.00 0.00 0.00 80 1018.9
20260505000543 11 271 3.2 4.8 0.00 0.00 0.00 79 1018.9
20260504235742 11 271 0.0 0.0 0.00 0.00 0.00 79 1018.9
20260504235241 11 271 0.0 0.0 0.00 0.00 0.00 78 1018.8
20260504234741 11 271 0.0 0.0 0.00 0.00 0.00 78 1018.8
20260504234241 11 271 0.0 0.0 0.00 0.00 0.00 78 1018.8
20260504233740 11 271 0.0 1.6 0.00 0.00 0.00 79 1018.9
20260504233241 11 271 0.0 1.6 0.00 0.00 0.00 79 1018.9
20260504232740 11 271 0.0 0.0 0.00 0.00 0.00 79 1018.9
20260504232548 11 271 0.0 0.0 0.00 0.00 0.00 79 1018.9
20260504231738 11 271 0.0 0.0 0.00 0.00 0.00 78 1018.9
20260504231239 11 271 0.0 0.0 0.00 0.00 0.00 78 1018.9
20260504230738 11 271 0.0 0.0 0.00 0.00 0.00 78 1018.9
20260504230539 11 271 0.0 0.0 0.00 0.00 0.00 77 1019.1
20260504225735 12 271 0.0 0.0 0.00 0.00 0.00 77 1019.1
20260504225236 12 271 0.0 0.0 0.00 0.00 0.00 76 1019.1
20260504224735 12 271 0.0 0.0 0.00 0.00 0.00 76 1019.1
20260504224236 12 271 0.0 0.0 0.00 0.00 0.00 76 1019.2
20260504223734 12 271 0.0 0.0 0.00 0.00 0.00 77 1019.2
20260504223234 12 271 0.0 1.6 0.00 0.00 0.00 77 1019.3
20260504222735 12 271 1.6 1.6 0.00 0.00 0.00 77 1019.3
20260504222232 12 271 0.0 1.6 0.00 0.00 0.00 76 1019.4
20260504222034 12 271 0.0 1.6 0.00 0.00 0.00 76 1019.4
20260504221233 12 271 0.0 1.6 0.00 0.00 0.00 76 1019.4
20260504220732 12 271 0.0 0.0 0.00 0.00 0.00 77 1019.5
20260504220233 12 271 0.0 0.0 0.00 0.00 0.00 77 1019.5
20260504215732 12 271 0.0 0.0 0.00 0.00 0.00 76 1019.7
20260504215232 12 271 0.0 1.6 0.00 0.00 0.00 76 1019.8
20260504214731 12 271 0.0 1.6 0.00 0.00 0.00 75 1019.7
20260504214541 12 271 0.0 0.0 0.00 0.00 0.00 74 1019.7
20260504213731 12 271 0.0 0.0 0.00 0.00 0.00 74 1019.5
20260504213234 12 271 0.0 3.2 0.00 0.00 0.00 73 1019.5
20260504212731 12 271 0.0 3.2 0.00 0.00 0.00 73 1019.7
20260504212542 13 271 0.0 8.0 0.00 0.00 0.00 72 1019.7
20260504211731 13 271 3.2 8.0 0.00 0.00 0.00 73 1019.8
20260504211342 12 276 0.0 4.8 0.00 0.00 0.00 73 1019.5
20260504211319 13 281 3.2 6.4 0.00 0.00 0.00 73 1019.5
20260504210231 13 283 1.6 4.8 0.00 0.00 0.00 72 1019.7
20260504205731 13 278 1.6 3.2 0.00 0.00 0.00 71 1019.7
20260504205231 13 278 0.0 8.0 0.00 0.00 0.00 71 1019.7
20260504204733 13 278 0.0 8.0 0.00 0.00 0.00 71 1019.7
20260504204231 13 264 3.2 6.4 0.00 0.00 0.00 70 1019.7
20260504203731 13 254 0.0 3.2 0.00 0.00 0.00 70 1019.7
20260504203231 13 231 0.0 3.2 0.00 0.00 0.00 69 1019.7
20260504202730 13 231 0.0 6.4 0.00 0.00 0.00 69 1019.8
20260504202340 13 214 4.8 14.5 0.00 0.00 0.00 69 1019.5
20260504202319 13 251 1.6 14.5 0.00 0.00 0.00 69 1019.7
20260504201233 13 250 6.4 14.5 0.00 0.00 0.00 69 1019.5
20260504200733 14 265 6.4 24.1 0.00 0.00 0.00 68 1019.5
20260504200231 14 252 9.7 24.1 0.00 0.00 0.00 67 1019.5
20260504195731 14 247 9.7 17.7 0.00 0.00 0.00 67 1019.3
20260504195232 14 259 8.0 14.5 0.00 0.00 0.00 67 1019.4
20260504194731 14 272 8.0 14.5 0.00 0.00 0.00 67 1019.4
20260504194539 14 278 6.4 16.1 0.00 0.00 0.00 66 1019.7
20260504193731 14 271 8.0 17.7 0.00 0.00 0.00 67 1019.5
20260504193549 14 244 9.7 17.7 0.00 0.00 0.00 67 1019.5
20260504192735 14 255 4.8 16.1 0.00 0.00 0.00 67 1019.4
20260504192537 14 243 8.0 16.1 0.00 0.00 0.00 67 1019.5
20260504191731 14 237 6.4 16.1 0.00 0.00 0.00 67 1019.5
20260504191231 15 245 8.0 16.1 0.00 0.00 0.00 66 1019.5
20260504190731 15 227 9.7 20.9 0.00 0.00 0.00 66 1019.3
20260504190230 15 227 11.3 22.5 0.00 0.00 0.00 65 1019.3
20260504185731 15 281 11.3 22.5 0.00 0.00 0.00 65 1019.3
20260504185231 15 258 14.5 22.5 0.00 0.00 0.00 65 1019.2
20260504184730 15 251 8.0 19.3 0.00 0.00 0.00 65 1019.2
20260504184231 15 226 11.3 22.5 0.00 0.00 0.00 66 1019.2
20260504184040 15 206 14.5 22.5 0.00 0.00 0.00 65 1019.1
20260504183231 15 257 12.9 22.5 0.00 0.00 0.00 66 1019.2
20260504182732 15 231 11.3 20.9 0.00 0.00 0.00 65 1019.1
20260504182231 15 244 12.9 24.1 0.00 0.00 0.00 65 1019.1
20260504181732 15 233 11.3 24.1 0.00 0.00 0.00 64 1019.1
20260504181536 15 226 12.9 20.9 0.00 0.00 0.00 64 1019.0
20260504180731 15 254 11.3 20.9 0.00 0.00 0.00 64 1019.0
20260504180231 15 247 11.3 20.9 0.00 0.00 0.00 64 1018.9
20260504175844 15 251 11.3 24.1 0.00 0.00 0.00 64 1018.8
20260504175822 15 235 9.7 22.5 0.00 0.00 0.00 64 1018.9
20260504174731 15 290 9.7 24.1 0.00 0.00 0.00 64 1018.9
20260504174535 16 228 12.9 24.1 0.00 0.00 0.00 64 1018.9
20260504173732 16 254 12.9 20.9 0.00 0.00 0.00 64 1018.9
20260504173230 16 295 12.9 24.1 0.00 0.00 0.00 64 1018.9
20260504172732 16 254 11.3 24.1 0.00 0.00 0.00 64 1018.9
20260504172535 16 262 14.5 24.1 0.00 0.00 0.00 63 1018.8
20260504171734 16 283 8.0 33.8 0.00 0.00 0.00 63 1018.8
20260504171231 16 290 16.1 33.8 0.00 0.00 0.00 63 1018.8
20260504170731 16 240 9.7 24.1 0.00 0.00 0.00 63 1018.9
20260504170231 16 293 14.5 29.0 0.00 0.00 0.00 63 1018.9
20260504160230 18 307 8.0 20.9 0.00 0.00 0.00 61 1018.7
20260504150731 19 303 14.5 24.1 0.00 0.00 0.00 59 1018.9
20260504150232 19 314 11.3 22.5 0.00 0.00 0.00 60 1018.9
20260504140731 20 320 14.5 22.5 0.00 0.00 0.00 57 1019.0
20260504140538 20 293 14.5 19.3 0.00 0.00 0.00 55 1019.1
20260504130230 20 321 12.9 20.9 0.00 0.00 0.00 58 1019.7
20260504120232 20 276 12.9 20.9 0.00 0.00 0.00 58 1020.0
20260504110231 20 196 6.4 11.3 0.00 0.00 0.00 58 1020.3
20260504100527 17 343 11.3 22.5 0.00 0.00 0.00 58 1021.0
20260504081233 17 292 9.7 20.9 0.00 0.00 0.00 56 1021.1
20260504080731 17 320 9.7 19.3 0.00 0.00 0.00 58 1021.1
20260504080231 17 144 4.8 16.1 0.00 0.00 0.00 61 1021.0
20260504070231 15 337 4.8 16.1 0.00 0.00 0.00 67 1020.8
20260504060227 13 125 1.6 4.8 0.00 0.00 0.00 83 1020.7
20260504050718 10 138 0.0 3.2 0.00 0.00 0.00 89 1020.4
20260504050219 10 138 0.0 4.8 0.00 0.00 0.00 88 1020.3
20260504045717 10 138 1.6 6.4 0.00 0.00 0.00 87 1020.3